星链-3764 (STARLINK-3764 )

导读 | 豆包AI

STARLINK-3764是美国太空探索技术公司SpaceX于2022年4月21日发射的星链低轨通信卫星,隶属于SpaceX全球星链互联网星座计划。作为第二代星链组网卫星(V1.5批次),它配备激光星间链路,可直接实现卫星间通信,能为全球偏远地区提供低延迟高速宽带互联网服务,目前已在轨正常运行,是当前全球规模最大卫星星座的组成单元。

基本信息
目录编号:
52280
目录名称:
STARLINK-3764
国际标识:
2022-041V
轨道中心:
EARTH
卫星名称:
星链-3764
卫星全名:
星链-3764 (STARLINK-3764 )
卫星状态:
在轨 (已飞行1470 天)
发射日期:
2022-04-21 UTC
国别 :
美国 (US)
星等 :
--
轨道信息
数据来源 国际轨道数据
星历时间: 2026-04-30T22:08:04+0800
9小时前
查看轨道信息
半长轴: 6917.88km
偏心率: 0.0001316
轨道倾角: 53.216°
近地点辐角 89.223°
升交点赤经 236.135°
平近点角 270.892°
近地点: 538.832km
远地点: 540.654km
周期: 95.438分钟
每日圈数: 15.088402
详细信息
固有亮度:
5
最大亮度:
2.5
卫星平台:
Starlink v1.5
覆盖范围:
全球
运营商:
太空探索技术公司
运营商所在国:
美国
制造商(研发单位):
太空探索技术公司
制造商所在国:
美国
使用方式:
暂无
卫星简介
星链(Starlink)计划是由太空探索技术公司(SpaceX)提出的一个巨型低轨卫星互联网星座项目,计划在2019年至2024年间在太空搭建由约1.2万颗卫星组成的“星链”网络,其中1584颗将部署在地球上空550千米处的近地轨道,并从2020年开始工作。该卫星仍在工作。
2D轨道图
3D轨道图
轨道高度分析图
轨道倾角分析图
轨道综合分析图
查看轨道综合分析图